Lexington Weather

Lexington, Massachusetts, USA

28°F
12/12/2019 4:14pm 
  • Lexington Conditions: Partly cloudy
  • Temperature: 27.9°F / -2.3°CColder 1.6°F than last hour.
  • Dew Point: 19.8°FDecreased 0.5°Fsince last hour.
  • Relative Humidity: 71%Increased 3.0% since last hour.
  • Wind: Wind from WSW WSW 1 mph, 10-min avg: 1 mph, gust: 4 mph
  • Barometer: 30.66 in Steady
  • Visibility: 10 miles
  • Snow Today: 0.0 in
  •   

Regional Weather Roundup
for Boston / Norton, MA

        
000
ASUS41 KBOX 101901
RWRBOX

REGIONAL WEATHER ROUNDUP
NATIONAL WEATHER SERVICE BOSTON/NORTON MA
200 PM EST TUE DEC 10 2019

NOTE:  "FAIR" INDICATES FEW OR NO CLOUDS BELOW 12,000 FEET WITH NO 
SIGNIFICANT WEATHER AND/OR OBSTRUCTIONS TO VISIBILITY.

MAZALL-102000-
EASTERN MASSACHUSETTS
  
CITY           SKY/WX    TMP DP  RH WIND       PRES   REMARKS
BOSTON         LGT RAIN  60  52  74 SW15      29.71R                  
BEVERLY        LGT RAIN  59  51  75 SW16      29.69R                  
LAWRENCE       PTSUNNY   56  50  80 SW12      29.70R                  
BEDFORD        LGT RAIN  58  50  75 SW10      29.69S                  
BLUE HILL        N/A     54  52  93 SW15G25   29.71R                  
NORWOOD        LGT RAIN  60  52  74 SW10      29.72R                  
MARSHFIELD     NOT AVBL                                               
PLYMOUTH       CLOUDY    57  53  86 SW14G24   29.76R                  
TAUNTON        LGT RAIN  58  53  84 SW8       29.76R                  
NEW BEDFORD    LGT RAIN  56  53  90 SW15G23   29.77R                  
$$

MAZALL-102000-
CAPE COD AND THE ISLANDS
  
CITY           SKY/WX    TMP DP  RH WIND       PRES   REMARKS
FALMOUTH       CLOUDY    57  55  94 SW22G36   29.78R                  
HYANNIS        NOT AVBL                                               
CHATHAM        FOG       50  50 100 SW9G22    29.79R VSB 3/4          
PROVINCETOWN   FOG       52  52 100 SW21G29   29.76R VSB 1            
NANTUCKET      CLOUDY    52  50  93 SW16      29.82R FOG              
MARTHAS VNYRD  LGT RAIN  55  53  93 SW16G25   29.80R FOG              
$$
 
MAZALL-102000-
CENTRAL AND WESTERN MASSACHUSETTS
  
CITY           SKY/WX    TMP DP  RH WIND       PRES   REMARKS
WORCESTER      LGT RAIN  51  49  92 SW17      29.72F                  
FITCHBURG      PTSUNNY   55  48  77 W10G18    29.70R                  
ORANGE         CLOUDY    53  49  86 S10       29.70F                  
SPRINGFIELD    NOT AVBL                                               
WESTFIELD      CLOUDY    51  47  86 S7        29.73S                  
NORTH ADAMS    CLOUDY    52  45  77 W10       29.70S                  
PITTSFIELD     LGT RAIN  50  46  86 SW7       29.71S                  
$$
 
RIZALL-102000-
RHODE ISLAND
  
CITY           SKY/WX    TMP DP  RH WIND       PRES   REMARKS
PROVIDENCE     RAIN      57  54  89 SW10      29.78R FOG              
NEWPORT        LGT RAIN  54  52  93 VRB7G20   29.79R FOG              
BLOCK ISLAND   LGT RAIN  53  52  96 SW15      29.80R FOG              
SMITHFIELD     LGT RAIN  55  54  96 VRB6      29.77R                  
WESTERLY       LGT RAIN  55  50  83 SW9G17    29.80R                  
$$
 
CTZALL-102000-
CONNECTICUT
  
CITY           SKY/WX    TMP DP  RH WIND       PRES   REMARKS
BRADLEY INTL   LGT RAIN  51  49  92 S12       29.74S                  
HARTFORD       LGT RAIN  55  52  89 S7        29.75S FOG              
BRIDGEPORT     RAIN      50  48  93 SW8       29.79S FOG              
DANBURY        RAIN      53  51  93 SW7       29.79R FOG              
GROTON         NOT AVBL                                               
NEW HAVEN      LGT RAIN  54  51  90 SW10      29.78S FOG              
CHESTER        LGT RAIN  54  54 100 VRB7G14   29.77F                  
MERIDEN        LGT RAIN  54  51  90 S7        29.77R FOG              
WILLIMANTIC    RAIN      54  53  97 SW6       29.79R FOG              
OXFORD         RAIN      53  51  93 SW6       29.78R                  
$$

MEZ002-015-021-024-NHZ003-005-008-011-012-014-VTZ005-008-102000-
NORTHERN NEW ENGLAND
  
CITY           SKY/WX    TMP DP  RH WIND       PRES   REMARKS
PORTLAND ME    CLOUDY    58  49  72 SW8       29.64R                  
BANGOR ME      LGT RAIN  52  49  89 S10       29.61R                  
CONCORD NH     CLOUDY    55  48  77 SW8       29.65F                  
MANCHESTER NH  CLOUDY    54  49  83 S8        29.66F                  
NASHUA NH      CLOUDY    54  52  93 VRB3      29.69F                  
PORTSMOUTH NH  CLOUDY    55  50  83 SW9       29.65F                  
JAFFREY NH     CLOUDY    50  48  93 S9        29.69F                  
KEENE NH       CLOUDY    48  46  93 S3        29.69S                  
BURLINGTON VT  CLOUDY    46  33  60 W18G28    29.69R                  
MT. WASHINGTON FRZ RAIN  32  32 100 W38         N/A  VSB 1/16WCI  16  
$$

NYZ052-076-102000-
EASTERN NEW YORK
  
CITY           SKY/WX    TMP DP  RH WIND       PRES   REMARKS
ALBANY         LGT RAIN  46  37  71 NW18G28   29.77R                  
NEW YORK CITY  CLOUDY    57  51  80 SW15G21   29.79F                  
$$
 
ANZALL-102000-
MARINE OBSERVATIONS
  
STATION/POSITION TIME  TEMP    WIND        PRES    VSBY  WAVE
                       AIR SEA DIR/SP/G                  HT/PER
                 (UTC) (F)     (DEG/KT/KT) (MB)    (MI)  (FT/S)
BOSTON BUOY      1750   54 48  190/ 10/ 12 1004.7          3/10
BUZZARDS BAY     1800   53     220/ 19/ 20 1008.0
NANTUCKET SOUND  1840      43              1009.0
MASS BAY-STELLWA 1804   50 46  220/ 12/ 12 1003.6S  1 7/8  5/11
ISLE OF SHOALS   1800   56     230/ 19/ 20 1004.0
S OF BLOCK IS    1830      53                N/A          12/11
$$

......................KEY.........................
  SKY/WX - SKY CONDITION/PRESENT WEATHER
  TMP    - TEMPERATURE IN FAHRENHEIT
  DWPT   - DEWPOINT IN FAHRENHEIT
  RH     - RELATIVE HUMIDITY IN PERCENT
  WIND   - DIRECTION AND SPEED IN MPH
  PRES   - MEAN SEA LEVEL PRESSURE IN INCHES OF HG
  WCI    - WIND CHILL INDEX
  VSB    - VISIBILITY IN MILES
  HX     - HEAT INDEX
  TC     - TEMPERATURE IN CELSIUS
  VRB    - VARIABLE WIND DIRECTION
  N/A    - NOT AVAILABLE
  
      

Other recent Regional Weather Roundups

Thu Dec 12, 4:01pm

Thu Dec 12, 3:10pm

Thu Dec 12, 3:00pm

Thu Dec 12, 2:10pm

Thu Dec 12, 2:01pm

Thu Dec 12, 1:10pm

Thu Dec 12, 1:00pm

Thu Dec 12, 12:10pm

Thu Dec 12, 12:00pm

Thu Dec 12, 11:10am

Thu Dec 12, 11:00am

Thu Dec 12, 10:10am

Thu Dec 12, 8:10am

Thu Dec 12, 8:00am

Thu Dec 12, 7:10am

Thu Dec 12, 7:00am

Thu Dec 12, 6:10am

Thu Dec 12, 6:00am

Thu Dec 12, 5:10am

Thu Dec 12, 5:00am

Thu Dec 12, 4:10am

Thu Dec 12, 4:00am

Thu Dec 12, 3:10am

Thu Dec 12, 3:00am

Thu Dec 12, 2:10am

Thu Dec 12, 2:00am

Thu Dec 12, 1:10am

Thu Dec 12, 1:00am

Thu Dec 12, 12:10am

Thu Dec 12, 12:00am

Wed Dec 11, 11:10pm

Wed Dec 11, 11:00pm

Wed Dec 11, 10:10pm

Wed Dec 11, 10:00pm

Wed Dec 11, 9:10pm

Wed Dec 11, 9:00pm

Wed Dec 11, 8:10pm

Wed Dec 11, 8:00pm

Wed Dec 11, 7:10pm

Wed Dec 11, 7:00pm

Wed Dec 11, 6:10pm

Wed Dec 11, 6:00pm

Wed Dec 11, 5:10pm

Wed Dec 11, 5:01pm

Wed Dec 11, 4:10pm

Wed Dec 11, 4:00pm

Wed Dec 11, 3:10pm

Wed Dec 11, 3:01pm

Wed Dec 11, 2:10pm

Wed Dec 11, 2:00pm

Wed Dec 11, 1:10pm

Wed Dec 11, 1:00pm

Wed Dec 11, 12:10pm

Wed Dec 11, 12:00pm

Wed Dec 11, 11:10am

Wed Dec 11, 11:00am

Wed Dec 11, 10:10am

Wed Dec 11, 10:00am

Wed Dec 11, 9:10am

Wed Dec 11, 9:00am

Wed Dec 11, 8:10am

Wed Dec 11, 8:00am

Wed Dec 11, 7:10am

Wed Dec 11, 7:00am

Wed Dec 11, 6:10am

Wed Dec 11, 6:00am

Wed Dec 11, 5:10am

Wed Dec 11, 5:00am

Wed Dec 11, 4:10am

Wed Dec 11, 4:00am

Wed Dec 11, 3:10am

Wed Dec 11, 3:01am

Wed Dec 11, 2:10am

Wed Dec 11, 2:01am

Wed Dec 11, 1:10am

Wed Dec 11, 1:00am

Wed Dec 11, 12:10am

Wed Dec 11, 12:00am

Tue Dec 10, 11:10pm

Tue Dec 10, 11:00pm

Tue Dec 10, 10:10pm

Tue Dec 10, 10:00pm

Tue Dec 10, 9:10pm

Tue Dec 10, 9:01pm

Tue Dec 10, 8:10pm

Tue Dec 10, 8:00pm

Tue Dec 10, 7:10pm

Tue Dec 10, 7:01pm

Tue Dec 10, 6:10pm

Tue Dec 10, 6:01pm

Tue Dec 10, 5:10pm

Tue Dec 10, 5:00pm

Tue Dec 10, 4:10pm

Tue Dec 10, 4:01pm

Tue Dec 10, 3:10pm

Tue Dec 10, 3:01pm

Tue Dec 10, 2:10pm

Tue Dec 10, 1:10pm

Tue Dec 10, 1:00pm

Tue Dec 10, 12:10pm

Tue Dec 10, 12:00pm

Tue Dec 10, 11:10am

Tue Dec 10, 11:00am

Tue Dec 10, 10:10am

Tue Dec 10, 10:00am

Tue Dec 10, 9:10am

Tue Dec 10, 9:01am

Tue Dec 10, 8:10am

Tue Dec 10, 8:00am

Tue Dec 10, 7:10am

Tue Dec 10, 7:00am

Tue Dec 10, 6:10am

Tue Dec 10, 6:00am

Tue Dec 10, 5:10am

Tue Dec 10, 5:00am

Tue Dec 10, 4:10am

Tue Dec 10, 4:00am

Tue Dec 10, 3:10am

Tue Dec 10, 3:00am

Tue Dec 10, 2:10am

Tue Dec 10, 2:01am

Tue Dec 10, 1:10am

Tue Dec 10, 1:00am

Tue Dec 10, 12:10am

Tue Dec 10, 12:01am

Mon Dec 9, 11:10pm

Mon Dec 9, 11:01pm

Mon Dec 9, 10:10pm

Mon Dec 9, 10:00pm

Mon Dec 9, 9:10pm

Mon Dec 9, 9:01pm

Mon Dec 9, 8:10pm

Mon Dec 9, 8:01pm

Mon Dec 9, 7:10pm

Mon Dec 9, 7:00pm

Mon Dec 9, 6:10pm

Mon Dec 9, 6:00pm

Mon Dec 9, 5:10pm

Mon Dec 9, 5:01pm

Mon Dec 9, 4:10pm

Meta data:

ID: b4ce6996-8ea7-4f2a-8771-1a1f33f59e14
Link: https://api.weather.gov/products/b4ce6996-8ea7-4f2a-8771-1a1f33f59e14